Hourly Data Report for September 16, 2017

All times are specified in Local Standard Time (LST). Add 1 hour to adjust for Daylight Saving Time where and when it is observed.

NAPPAN AUTO
NOVA SCOTIA

45°45'34.400" N
64°14'29.200" W
19.80 m
8203702
71311
XNP

Download Data

Hourly Data (September 2017)
Hourly Data Report for September 16, 2017
Temp Definition
°C
Dew Point Temp Definition
°C
Rel Hum Definition
%
Wind Dir Definition
10's deg

Wind Spd Definition
km/h
Visibility Definition
km
Stn Press Definition
kPa
Hmdx Definition


Wind Chill Definition


Weather Definition


TIME
00:00 13.2 11.7 91 20 7   101.82     LegendNANA
01:00 13.9 12.5 91 18 10   101.83     LegendNANA
02:00 15.6 13.9 90 18 10   101.81     LegendNANA
03:00 15.9 15.2 96 19 11   101.79     LegendNANA
04:00 16.3 15.6 95 19 10   101.77     LegendNANA
05:00 16.7 16.2 97 19 10   101.79     LegendNANA
06:00 17.1 16.4 96 20 8   101.80     LegendNANA
07:00 17.5 16.7 95 19 15   101.77     LegendNANA
08:00 17.9 16.8 93 21 9   101.82     LegendNANA
09:00 18.8 17.0 90 22 15   101.84     LegendNANA
10:00 19.6 17.4 87 22 16   101.81     LegendNANA
11:00 21.8 17.8 78 21 14   101.75 28   LegendNANA
12:00 23.2 17.8 72 20 15   101.71 29   LegendNANA
13:00 23.4 18.5 74 25 12   101.69 30   LegendNANA
14:00 21.7 17.7 78 27 14   101.69 27   LegendNANA
15:00 20.2 17.0 82 25 14   101.71 25   LegendNANA
16:00 20.5 17.1 81 28 13   101.71 26   LegendNANA
17:00 19.9 16.9 83 28 11   101.69     LegendNANA
18:00 18.2 16.2 88 25 6   101.75     LegendNANA
19:00 16.8 16.0 95 27 7   101.85     LegendNANA
20:00 17.1 14.2 83 6 10   101.94     LegendNANA
21:00 16.3 13.4 83 5 8   101.96     LegendNANA
22:00 15.8 13.2 85 3 10   101.96     LegendNANA
23:00 15.0 12.8 87 4 6   101.98     LegendNANA

Notes on Data Quality.

Legend

  • E = Estimated
  • M = Missing
  • NA = Not Available
  • ‡ = Partner data that is not subject to review by the National Climate Archives
Date modified: